[[{"header":{"parameterUnit":"m.s-1","parameterCategory":1,"la1":30.2991,"la2":30.254,"lo1":-89.0895,"lo2":-89.0444,"dy":0.0017,"dx":0.0017,"nx":28,"ny":28,"refTime":"2025-03-19T09:00:00:Z","depth":0,"parameterNumber":2,"parameterNumberName":"U-component_of_WINDS"},"data":[0,0,0,0,0,0,0,0,0,0,0,0,0,0,0,0,0,0,0,0,0,0,0,0,0,0,0,0,0,0,0,0,0,0,0,0,0,0,0,0,0,0,0,0,0,0,0,0,0,0,0,0,0,0,0,0,0,0,1.0527,1.0527,0,1.0455,1.0454,1.0453,1.0409,1.0409,1.0409,1.0408,1.033,1.0329,1.0327,0,0,0,0,0,0,0,0,0,0,0,0,0,1.0624,1.0623,1.0527,1.0526,1.0526,1.0455,1.0454,1.0453,1.0409,1.0409,1.0408,1.0408,1.0331,1.0329,1.0326,0,0,0,0,0,0,0,0,0,0,0,0,0,1.057,1.0622,1.0528,1.0495,1.0492,1.0455,1.0454,1.0452,1.0409,1.0409,1.0408,1.0408,1.0332,1.0329,1.0326,1.0315,0,0,1.0318,1.0316,0,0,0,0,0,0,0,0,1.0573,1.0566,1.0501,1.0497,1.0493,1.0441,1.0459,1.0406,1.0409,1.044,1.0408,1.0408,1.0367,1.0361,1.0348,1.0311,1.0308,1.0317,1.0316,1.0314,1.0314,0,0,0,0,0,0,0,1.0577,1.0569,1.0498,1.05,1.0495,1.0483,1.0475,1.0449,1.0406,1.0438,1.0434,1.0426,1.0365,1.0351,1.0346,1.0307,1.0317,1.0315,1.0313,1.0312,1.0254,1.0255,0,0,0,0,0,0,1.0586,1.0573,1.0501,1.0496,1.0533,1.0482,1.0473,1.0458,1.0406,1.0398,1.0427,1.0425,1.0356,1.0349,1.0343,1.0325,1.0314,1.0312,1.031,1.0254,1.0255,1.0255,0,0,0,0,0,0,1.0588,1.058,1.0504,1.0533,1.0523,1.048,1.0464,1.0456,1.0443,1.0398,1.039,1.0421,1.0356,1.0347,1.0322,1.0322,1.031,1.0308,1.0254,1.0254,1.0255,1.029,0,0,0,0,0,0,1.0591,1.0581,1.0578,1.0534,1.0521,1.0485,1.0464,1.0455,1.0438,1.0435,1.039,1.0383,1.0355,1.0326,1.0319,1.0318,1.0306,1.0254,1.0254,1.0255,1.0289,1.0292,1.0294,0,0,0,0,0,1.0595,1.059,1.0578,1.0569,1.0516,1.0485,1.0478,1.0447,1.0439,1.0434,1.0405,1.0384,1.0323,1.0324,1.0316,1.0313,1.0254,1.0254,1.0255,1.0288,1.0291,1.0294,0,0,0,0,0,0,1.0634,1.0584,1.0569,1.0551,1.0523,1.0478,1.0471,1.0452,1.0425,1.0423,1.0384,1.0374,1.0353,1.033,1.0332,1.0299,1.0286,1.0285,1.0314,1.0317,1.032,1.0325,1.0303,0,0,0,0,0,1.0641,1.0621,1.0578,1.0565,1.0552,1.0514,1.0499,1.0478,1.0447,1.0435,1.0404,1.0374,1.0347,1.0331,1.0305,1.0285,1.0274,1.0279,1.0282,1.0285,1.0284,1.027,1.0272,1.0256,1.0256,1.0256,0,0,1.0654,1.0624,1.0614,1.0572,1.0548,1.0527,1.0504,1.0484,1.0467,1.0431,1.0405,1.0382,1.0345,1.0323,1.0311,1.0304,1.0285,1.0285,1.0287,1.0285,1.0271,1.0272,1.0274,1.0256,1.0256,1.0256,0,0,1.0667,1.0643,1.0629,1.0605,1.0569,1.0544,1.0541,1.0499,1.0482,1.0456,1.0428,1.0407,1.0364,1.0338,1.032,1.0322,1.0301,1.0315,1.0328,1.0315,1.0317,1.0317,1.0317,1.0318,1.0314,1.0314,1.0314,0,1.0687,1.0656,1.0624,1.0605,1.0587,1.0554,1.0539,1.0517,1.0474,1.0461,1.0453,1.0397,1.037,1.0341,1.0341,1.0328,1.0321,1.0319,1.0319,1.032,1.032,1.0319,1.0319,1.0316,1.0316,1.0315,1.0315,0,1.0682,1.0661,1.0654,1.0614,1.0595,1.0578,1.0542,1.0526,1.0506,1.0481,1.0454,1.0421,1.0386,1.0378,1.0358,1.0345,1.0341,1.0327,1.0313,1.0324,1.0322,1.0322,1.0318,1.0318,1.0317,1.0317,0,0,1.0717,1.066,1.0658,1.0639,1.0596,1.0578,1.0559,1.0527,1.0513,1.0484,1.0466,1.0429,1.0416,1.0395,1.0371,1.036,1.0363,1.0347,1.0346,1.035,1.0345,1.0355,1.0355,1.0349,1.0349,1.0349,1.0347,0,1.0723,1.0688,1.0659,1.0634,1.0613,1.0581,1.0564,1.0535,1.0511,1.0488,1.0461,1.0435,1.042,1.0407,1.0395,1.0365,1.0361,1.0365,1.033,1.0329,1.034,1.0355,1.0366,1.0366,1.0347,1.0347,1.0347,0,1.0726,1.0699,1.0672,1.0631,1.0621,1.0607,1.0574,1.0553,1.0519,1.0502,1.0478,1.0454,1.043,1.0419,1.0385,1.0388,1.0372,1.0355,1.0354,1.0349,1.0338,1.0349,1.0366,1.0366,1.0346,1.0346,1.0346,0,1.0753,1.071,1.0688,1.0673,1.0625,1.0615,1.0594,1.056,1.0542,1.0513,1.05,1.0468,1.0451,1.0426,1.0392,1.0388,1.0361,1.0348,1.0345,1.0346,1.034,1.0341,1.0354,1.0332,1.0332,1.0332,1.0332,0,1.0762,1.0747,1.07,1.0686,1.0668,1.0633,1.0615,1.0591,1.0561,1.0541,1.0511,1.0493,1.0451,1.0427,1.0401,1.0376,1.0368,1.0352,1.0345,1.0355,1.0357,1.0343,1.0342,1.0332,1.0332,1.0332,1.0332,0,1.0789,1.0757,1.0731,1.0688,1.0676,1.0664,1.0626,1.0611,1.0585,1.056,1.0552,1.0511,1.0482,1.0446,1.0405,1.0387,1.0364,1.0354,1.0376,1.0372,1.037,1.0371,1.0374,1.0372,1.0353,1.0353,1.0353,0,1.0797,1.0784,1.074,1.0725,1.0705,1.0681,1.0663,1.0628,1.061,1.0569,1.0559,1.0527,1.05,1.0453,1.0419,1.0386,1.0375,1.0378,1.037,1.0379,1.0373,1.0374,1.0372,1.038,1.0381,1.0381,1.0381,0,1.0813,1.0798,1.0773,1.0743,1.0722,1.0696,1.0668,1.0657,1.0616,1.0597,1.0567,1.0546,1.0503,1.0471,1.0435,1.0411,1.0389,1.0385,1.0382,1.0391,1.0403,1.0395,1.0381,1.0384,1.0384,1.0384,1.0384,1.0384,1.083,1.0817,1.0783,1.0756,1.0732,1.0707,1.069,1.0663,1.0637,1.0601,1.0581,1.0551,1.0516,1.0464,1.0442,1.0416,1.0409,1.0405,1.0404,1.0404,1.0406,1.0408,1.041,1.041,1.0409,1.0409,1.0409,0,1.0844,1.082,1.0796,1.0759,1.0737,1.072,1.0688,1.0671,1.0645,1.0615,1.0589,1.0553,1.0522,1.0485,1.0451,1.0437,1.0426,1.0429,1.043,1.0424,1.0415,1.0421,1.0439,1.0439,1.0439,1.0439,1.0439,1.0439,1.0848,1.0825,1.0806,1.077,1.0746,1.0717,1.0701,1.0677,1.0652,1.0614,1.0589,1.0565,1.0531,1.0495,1.0465,1.0454,1.0443,1.0449,1.0435,1.0428,1.0425,1.0423,1.0427,1.0447,1.0447,1.0446,1.0446,1.0446]},{"header":{"parameterUnit":"m.s-1","parameterCategory":1,"la1":30.2991,"la2":30.254,"lo1":-89.0895,"lo2":-89.0444,"dy":0.0017,"dx":0.0017,"nx":28,"ny":28,"refTime":"2025-03-19T09:00:00:Z","depth":0,"parameterNumber":3,"parameterNumberName":"V-component_of_WINDS"},"data":[0,0,0,0,0,0,0,0,0,0,0,0,0,0,0,0,0,0,0,0,0,0,0,0,0,0,0,0,0,0,0,0,0,0,0,0,0,0,0,0,0,0,0,0,0,0,0,0,0,0,0,0,0,0,0,0,0,0,5.764,5.7642,0,5.7789,5.779,5.7792,5.7787,5.7785,5.7783,5.7781,5.7928,5.7933,5.7939,0,0,0,0,0,0,0,0,0,0,0,0,0,5.7347,5.7353,5.764,5.7642,5.7644,5.7788,5.779,5.7792,5.7787,5.7785,5.7783,5.778,5.7926,5.7932,5.7939,0,0,0,0,0,0,0,0,0,0,0,0,0,5.7483,5.7355,5.764,5.7659,5.7662,5.7788,5.7791,5.7793,5.7788,5.7785,5.7782,5.7779,5.7923,5.7932,5.794,5.8055,0,0,5.7967,5.7971,0,0,0,0,0,0,0,0,5.7475,5.7494,5.7654,5.7658,5.7662,5.7766,5.7741,5.7881,5.7789,5.774,5.7781,5.7778,5.7876,5.7888,5.7923,5.8062,5.8068,5.7968,5.7973,5.7977,5.7979,0,0,0,0,0,0,0,5.7466,5.7487,5.7699,5.7657,5.7661,5.7658,5.7674,5.7767,5.7823,5.7744,5.7744,5.7762,5.7877,5.7914,5.7926,5.8071,5.7968,5.7975,5.7981,5.7984,5.8312,5.8315,0,0,0,0,0,0,5.7453,5.7479,5.7694,5.7703,5.7559,5.7666,5.7684,5.7736,5.7822,5.7833,5.7764,5.7761,5.7901,5.7916,5.7931,5.8072,5.7977,5.7985,5.799,5.8308,5.8313,5.8316,0,0,0,0,0,0,5.7447,5.7472,5.7688,5.7592,5.7619,5.7675,5.7733,5.774,5.7777,5.7838,5.7847,5.7792,5.7899,5.7919,5.8025,5.8077,5.7989,5.7997,5.8304,5.831,5.8314,5.8354,0,0,0,0,0,0,5.7438,5.747,5.7516,5.7593,5.7624,5.7781,5.7736,5.7745,5.7793,5.779,5.7866,5.7876,5.7898,5.8012,5.8034,5.8087,5.8003,5.83,5.8307,5.8313,5.8348,5.8359,5.8369,0,0,0,0,0,5.7428,5.7519,5.7518,5.7544,5.7682,5.7784,5.7802,5.7827,5.7797,5.7843,5.7881,5.7874,5.8068,5.8023,5.8047,5.8104,5.8297,5.8305,5.8312,5.8343,5.8357,5.8369,0,0,0,0,0,0,5.7444,5.753,5.7529,5.7648,5.7709,5.7783,5.7841,5.7841,5.791,5.7904,5.7931,5.7949,5.8055,5.809,5.8038,5.822,5.8178,5.8191,5.8193,5.8207,5.8218,5.8207,5.8011,0,0,0,0,0,5.7462,5.754,5.7609,5.7708,5.7738,5.7785,5.783,5.7844,5.7908,5.7933,5.7979,5.8039,5.8114,5.8162,5.8234,5.8353,5.8369,5.8404,5.8415,5.8423,5.8434,5.85,5.8516,5.8342,5.8342,5.8342,0,0,5.7499,5.7555,5.7602,5.7712,5.7761,5.7839,5.7806,5.789,5.7947,5.7945,5.8048,5.8085,5.8153,5.8266,5.8318,5.8299,5.8486,5.8433,5.844,5.8446,5.8509,5.8526,5.854,5.8347,5.8346,5.8346,0,0,5.7607,5.7657,5.7745,5.7795,5.7871,5.7901,5.7922,5.7996,5.8021,5.8126,5.8126,5.8193,5.8321,5.8371,5.8413,5.854,5.8535,5.8562,5.8619,5.8682,5.8696,5.8708,5.8753,5.8769,5.8573,5.8573,5.8573,0,5.7642,5.7762,5.779,5.7875,5.7923,5.7926,5.8015,5.8061,5.8155,5.8188,5.8165,5.8327,5.8373,5.8498,5.8529,5.8563,5.8587,5.8554,5.8692,5.8704,5.8716,5.876,5.8777,5.8576,5.8576,5.8575,5.8575,0,5.7802,5.7885,5.7947,5.804,5.8095,5.8181,5.8221,5.8273,5.8283,5.8315,5.8421,5.8477,5.8561,5.8592,5.8601,5.8718,5.8704,5.8686,5.8645,5.8735,5.8777,5.8793,5.858,5.8579,5.8578,5.8578,0,0,5.7923,5.8032,5.8055,5.8097,5.8181,5.8245,5.833,5.8414,5.8458,5.8523,5.8595,5.8704,5.8689,5.8736,5.8751,5.8807,5.8905,5.8783,5.8785,5.8804,5.9037,5.9049,5.9068,5.8902,5.8906,5.8908,5.9031,0,5.804,5.8195,5.8223,5.8357,5.8434,5.8438,5.8513,5.8572,5.8604,5.8672,5.8707,5.8784,5.8758,5.8787,5.8842,5.8881,5.8952,5.8873,5.8968,5.8972,5.8951,5.909,5.9103,5.9216,5.9047,5.905,5.9052,0,5.8196,5.8267,5.841,5.8485,5.8518,5.8585,5.8664,5.873,5.8796,5.8815,5.8869,5.8878,5.8966,5.8921,5.9043,5.8988,5.9029,5.9054,5.9059,5.9068,5.9017,5.9103,5.9253,5.927,5.9078,5.9076,5.9074,0,5.827,5.8402,5.8505,5.8541,5.863,5.8677,5.8716,5.8779,5.8828,5.8897,5.8929,5.9006,5.9048,5.9107,5.9136,5.9101,5.9256,5.9213,5.9274,5.9273,5.9306,5.9303,5.9464,5.9332,5.9332,5.9332,5.9331,0,5.8397,5.8484,5.8539,5.8602,5.87,5.873,5.8825,5.8863,5.892,5.8989,5.8997,5.9061,5.9096,5.9166,5.9189,5.9286,5.9305,5.9322,5.9327,5.9322,5.9319,5.9348,5.9341,5.9336,5.9335,5.9334,5.9333,0,5.8496,5.8537,5.8649,5.8725,5.8746,5.8815,5.8879,5.894,5.8972,5.906,5.9082,5.9133,5.9215,5.925,5.9351,5.9366,5.9477,5.9476,5.9456,5.9457,5.9516,5.951,5.9701,5.9728,5.9578,5.958,5.9581,0,5.8575,5.8642,5.8726,5.8775,5.8816,5.8893,5.8943,5.8975,5.9027,5.9109,5.9159,5.9242,5.931,5.9441,5.9486,5.9563,5.9564,5.9625,5.9575,5.9567,5.9565,5.956,5.9567,5.9634,5.9636,5.9637,5.9638,0,5.8709,5.8726,5.88,5.8882,5.8942,5.9007,5.907,5.9109,5.915,5.9208,5.9294,5.9347,5.945,5.9532,5.9612,5.965,5.9651,5.9654,5.9672,5.9667,5.9652,5.9661,5.9481,5.9649,5.9648,5.9647,5.9647,5.9646,5.8801,5.8861,5.893,5.9012,5.9064,5.9123,5.9184,5.9225,5.9298,5.9386,5.94,5.9491,5.9555,5.9663,5.9705,5.9775,5.976,5.9786,5.9792,5.9798,5.9802,5.9641,5.979,5.9789,5.9789,5.9789,5.9789,0,5.8936,5.8981,5.9056,5.9146,5.921,5.9207,5.9277,5.9331,5.9411,5.9472,5.954,5.9638,5.9717,5.9769,5.9849,5.9896,5.9898,5.9916,5.9912,5.9921,5.9811,5.9788,5.9912,5.9912,5.9912,5.9912,5.9912,5.9912,5.9014,5.9117,5.9142,5.927,5.9313,5.9405,5.9445,5.9499,5.9548,5.9658,5.9725,5.9759,5.9816,5.99,5.9973,5.9986,6.0015,6.0033,6.0045,5.9942,5.9929,5.9916,5.9895,6.0039,6.0039,6.0149,6.015,6.0151]}]]